Regional Weather Roundup
Issued by NWS

Home | Current Version | Previous Version | Graphics & Text | Print | Product List | Glossary On
Versions: 1 2 3 4 5 6 7 8 9 10 11 12 13 14 15 16 17 18 19 20 21 22 23 24 25 26 27 28 29 30 31 32 33 34 35 36 37 38 39 40 41 42 43 44 45 46 47 48 49 50
075
ASUS45 KABQ 222101
RWRNM
NEW MEXICO REGIONAL WEATHER ROUNDUP
NATIONAL WEATHER SERVICE ALBUQUERQUE NM
300 PM MDT TUE MAY 22 2018

NOTE: "FAIR" MEANS FEW OR NO CLOUDS BELOW 12,000 FEET AGL WITH NO
       SIGNIFICANT WEATHER OR OBSTRUCTIONS TO VISION.

      THIS PRODUCT IS RELEASED AS TWO VERSIONS.  ONE VERSION NEAR
      THE TOP OF THE HOUR CONTAINING PRELIMINARY DATA FROM ALBUQUERQUE
      AND OTHER STATIONS.  A FINAL VERSION WITH ADDITIONAL DATA IS
      ISSUED ABOUT 10 MINUTES AFTER THE HOUR.

NMZ501-503-504-510>518-222200-
NORTHWEST PLATEAU/NORTHCENTRAL MOUNTAINS

CITY           SKY/WX    TMP DP  RH WIND       PRES   REMARKS
FARMINGTON     FAIR      77  23  13 S9G18     29.91F
LOS ALAMOS     FAIR      68  38  34 E9G25     30.08F
SANTA FE       TSTM      60  50  69 SW13G18   30.05F
TAOS           FAIR      74  32  21 W17G29    30.08F
ANGEL FIRE     CLOUDY    64  35  34 SW6       30.14F

$$
NMZ402-403-502-505>509-222200-
WESTCENTRAL MOUNTAINS/SOUTHWEST MOUNTAINS

CITY           SKY/WX    TMP DP  RH WIND       PRES   REMARKS
GALLUP         FAIR      76  14   9 S22G29    29.97F

$$
NMZ407-409-411-412-222200-
SOUTHERN DESERTS

CITY           SKY/WX    TMP DP  RH WIND       PRES   REMARKS
DEMING         FAIR      87  17   7 SW15G29   29.92F
LAS CRUCES     FAIR      89  26  10 S15G24    29.94F
HOLLOMAN AFB   FAIR      88  43  20 SE14G23   29.93F
T OR C         FAIR      87  15   7 S25G33    29.93F

$$
NMZ519>523-222200-
CENTRAL VALLEYS/CENTRAL HIGHLANDS

CITY           SKY/WX    TMP DP  RH WIND       PRES   REMARKS
ALBUQUERQUE    PTSUNNY   81  42  25 SW14G31   29.96F
DOUBLE EAGLE   PTSUNNY   79  37  22 S22G33    29.99F
MORIARTY ARPT  FAIR      80  44  28 S21G28    30.03F
CLINES CORNERS CLOUDY    64  48  56 SE14G35   30.10F
BELEN          NOT AVBL
SOCORRO        FAIR      82  30  15 S21G29    29.93F

$$
NMZ524>526-539-540-222200-
SOUTHCENTRAL MOUNTAINS

CITY           SKY/WX    TMP DP  RH WIND       PRES   REMARKS
RUIDOSO        NOT AVBL

$$
NMZ527>531-222200-
NORTHEAST HIGHLANDS/NORTHEAST PLAINS

CITY           SKY/WX    TMP DP  RH WIND       PRES   REMARKS
LAS VEGAS      FAIR      67  48  50 S16G26    30.07F
RATON          FAIR      80  34  19 S32G40    29.98F
CLAYTON        FAIR      75  53  46 S24G31    30.00F

$$
NMZ532>537-222200-
EASTCENTRAL PLAINS

CITY           SKY/WX    TMP DP  RH WIND       PRES   REMARKS
TUCUMCARI      FAIR      81  59  47 S13G22    29.96F
CANNON AFB     NOT AVBL
CLOVIS AIRPORT FAIR      80  57  45 S17G24    30.01F

$$
NMZ028-029-538-222200-
SOUTHEAST PLAINS

CITY           SKY/WX    TMP DP  RH WIND       PRES   REMARKS
ROSWELL        FAIR      82  59  45 S16G26    29.94F
CARLSBAD       FAIR      86  56  35 SE13G22   29.91F
HOBBS          PTSUNNY   82  54  36 S12G22    29.97F


$$




USA.gov is the U.S. government's official web portal to all federal, state and local government web resources and services.